RYR17FY LFOB-LPPT

Flight info

Callsign RYR17FY
Flight time 2h 14m
Altitude 35000
Route LGL UT176 TERPO UN872 ERIGA UZ218 FUJTI/N0444F370 DCT BAKUP DCT BATAX DCT INBOM
Aircraft B738/M-SDE3FGILRWY/SB1

Departure

Time 2026-05-08 18:51
Airport Beauvais-Tillé airport (LFOB)

Arrival

Time 2026-05-08 21:05
Airport Lisbon Humberto Delgado Airport (LPPT)
Time Latitude Longitude Altitude Speed Heading
2026-05-08 18:20 49.45824 2.11333 355 ft 0 kts 311°
2026-05-08 18:43 49.45822 2.11337 346 ft 3 kts 311°
2026-05-08 18:44 49.45805 2.11367 356 ft 4 kts 305°
2026-05-08 18:44 49.45794 2.11403 347 ft 4 kts 276°
2026-05-08 18:44 49.45798 2.11439 349 ft 4 kts 230°
2026-05-08 18:44 49.45805 2.11451 356 ft 1 kts 223°
2026-05-08 18:45 49.45806 2.11452 356 ft 0 kts 223°
2026-05-08 18:45 49.45806 2.11451 356 ft 0 kts 223°
2026-05-08 18:48 49.45805 2.11451 356 ft 2 kts 223°
2026-05-08 18:48 49.45753 2.11378 345 ft 15 kts 221°
2026-05-08 18:48 49.45702 2.11256 352 ft 14 kts 279°
2026-05-08 18:48 49.45749 2.11129 346 ft 13 kts 303°
2026-05-08 18:49 49.45784 2.11009 348 ft 9 kts 255°
2026-05-08 18:49 49.45766 2.10977 352 ft 0 kts 216°
2026-05-08 18:49 49.45764 2.10974 351 ft 3 kts 216°
2026-05-08 18:50 49.45714 2.10928 357 ft 11 kts 209°
2026-05-08 18:50 49.45647 2.10874 353 ft 11 kts 196°
2026-05-08 18:50 49.45583 2.10960 351 ft 23 kts 124°
2026-05-08 18:50 49.45339 2.11519 336 ft 101 kts 124°
2026-05-08 18:51 49.44831 2.12704 351 ft 160 kts 121°
2026-05-08 18:51 49.44311 2.14207 1004 ft 164 kts 109°
2026-05-08 18:51 49.44304 2.15919 1766 ft 166 kts 64°
2026-05-08 18:51 49.45189 2.17243 2131 ft 198 kts 23°
2026-05-08 18:52 49.46641 2.17378 2414 ft 226 kts 347°
2026-05-08 18:52 49.48062 2.16153 2794 ft 250 kts 316°
2026-05-08 18:52 49.48916 2.13803 3223 ft 271 kts 282°
2026-05-08 18:52 49.48964 2.10893 4122 ft 272 kts 268°
2026-05-08 18:53 49.48928 2.07987 5104 ft 273 kts 271°
2026-05-08 18:53 49.48908 2.05084 6093 ft 271 kts 260°
2026-05-08 18:53 49.48189 2.02424 6955 ft 273 kts 232°
2026-05-08 18:53 49.46969 2.00636 7683 ft 276 kts 215°
2026-05-08 18:54 49.45546 1.98648 8465 ft 281 kts 233°
2026-05-08 18:54 49.44447 1.96141 8946 ft 284 kts 238°
2026-05-08 18:54 49.43379 1.93586 9041 ft 285 kts 238°
2026-05-08 18:54 49.42303 1.91031 9041 ft 284 kts 237°
2026-05-08 18:55 49.40128 1.85979 9054 ft 284 kts 237°
2026-05-08 18:55 49.39026 1.83465 9054 ft 284 kts 236°
2026-05-08 18:55 49.37916 1.80955 9053 ft 284 kts 236°
2026-05-08 18:56 49.36803 1.78450 9052 ft 284 kts 236°
2026-05-08 18:56 49.35684 1.75944 9048 ft 285 kts 236°
2026-05-08 18:56 49.34564 1.73442 9049 ft 285 kts 236°
2026-05-08 18:56 49.33440 1.70939 9049 ft 285 kts 236°
2026-05-08 18:57 49.32315 1.68439 9046 ft 285 kts 236°
2026-05-08 18:57 49.31568 1.66783 9049 ft 285 kts 236°
2026-05-08 18:57 49.30163 1.63668 9049 ft 285 kts 236°
2026-05-08 18:57 49.29034 1.61171 9051 ft 285 kts 236°
2026-05-08 18:58 49.27904 1.58674 9052 ft 285 kts 236°
2026-05-08 18:58 49.26778 1.56188 9053 ft 285 kts 236°
2026-05-08 18:58 49.25646 1.53691 9055 ft 286 kts 236°
2026-05-08 18:58 49.24515 1.51199 9399 ft 291 kts 236°
2026-05-08 18:59 49.23361 1.48658 10300 ft 290 kts 236°
2026-05-08 18:59 49.22175 1.46064 10741 ft 308 kts 235°
2026-05-08 18:59 49.20868 1.43357 10941 ft 332 kts 233°
2026-05-08 18:59 49.19422 1.40451 11461 ft 343 kts 233°
2026-05-08 19:00 49.17966 1.37542 12245 ft 346 kts 233°
2026-05-08 19:00 49.16517 1.34647 13022 ft 349 kts 233°
2026-05-08 19:00 49.15068 1.31749 13770 ft 353 kts 233°
2026-05-08 19:00 49.13574 1.28754 14454 ft 356 kts 233°
2026-05-08 19:01 49.12218 1.26034 15058 ft 359 kts 233°
2026-05-08 19:01 49.10684 1.22956 15751 ft 363 kts 233°
2026-05-08 19:01 49.09150 1.19878 16426 ft 366 kts 233°
2026-05-08 19:01 49.07602 1.16774 17101 ft 369 kts 233°
2026-05-08 19:02 49.06039 1.13643 17762 ft 373 kts 233°
2026-05-08 19:02 49.04485 1.10533 18400 ft 376 kts 233°
2026-05-08 19:02 49.02867 1.07298 18955 ft 380 kts 233°
2026-05-08 19:02 49.01257 1.04082 19481 ft 384 kts 233°
2026-05-08 19:03 48.99627 1.00831 19999 ft 388 kts 233°
2026-05-08 19:03 48.97979 0.97549 20526 ft 392 kts 233°
2026-05-08 19:03 48.96314 0.94235 21040 ft 396 kts 233°
2026-05-08 19:03 48.94739 0.91105 21515 ft 400 kts 233°
2026-05-08 19:04 48.93040 0.87734 22012 ft 403 kts 233°
2026-05-08 19:04 48.91324 0.84332 22496 ft 407 kts 233°
2026-05-08 19:04 48.89601 0.80921 22989 ft 411 kts 233°
2026-05-08 19:04 48.87840 0.77440 23462 ft 415 kts 233°
2026-05-08 19:05 48.86075 0.73954 23874 ft 418 kts 233°
2026-05-08 19:05 48.84295 0.70444 24315 ft 420 kts 233°
2026-05-08 19:05 48.82512 0.66933 24778 ft 421 kts 233°
2026-05-08 19:05 48.80719 0.63407 25209 ft 423 kts 233°
2026-05-08 19:06 48.78920 0.59873 25619 ft 425 kts 233°
2026-05-08 19:06 48.77112 0.56326 26010 ft 427 kts 233°
2026-05-08 19:06 48.75286 0.52750 26398 ft 429 kts 233°
2026-05-08 19:06 48.73456 0.49168 26786 ft 431 kts 233°
2026-05-08 19:07 48.71615 0.45571 27169 ft 433 kts 233°
2026-05-08 19:07 48.69765 0.41961 27527 ft 435 kts 233°
2026-05-08 19:07 48.67902 0.38332 27886 ft 437 kts 233°
2026-05-08 19:07 48.66030 0.34689 28240 ft 439 kts 233°
2026-05-08 19:08 48.64150 0.31034 28596 ft 441 kts 233°
2026-05-08 19:08 48.62260 0.27366 28945 ft 443 kts 232°
2026-05-08 19:08 48.60365 0.23695 29421 ft 442 kts 232°
2026-05-08 19:08 48.58484 0.20053 29966 ft 439 kts 232°
2026-05-08 19:09 48.56637 0.16485 30433 ft 436 kts 232°
2026-05-08 19:09 48.54770 0.12880 30813 ft 435 kts 232°
2026-05-08 19:09 48.52908 0.09291 31193 ft 434 kts 232°
2026-05-08 19:09 48.51051 0.05716 31611 ft 432 kts 232°
2026-05-08 19:10 48.49204 0.02164 32031 ft 429 kts 232°
2026-05-08 19:10 48.47364 -0.01369 32443 ft 427 kts 232°
2026-05-08 19:10 48.45531 -0.04884 32822 ft 426 kts 232°
2026-05-08 19:10 48.43702 -0.08387 33185 ft 425 kts 232°
2026-05-08 19:11 48.41877 -0.11880 33558 ft 423 kts 232°
2026-05-08 19:11 48.40067 -0.15338 33943 ft 421 kts 232°
2026-05-08 19:11 48.38253 -0.18802 34280 ft 419 kts 232°
2026-05-08 19:11 48.36447 -0.22243 34579 ft 418 kts 232°
2026-05-08 19:12 48.34643 -0.25670 34827 ft 418 kts 231°
2026-05-08 19:12 48.32777 -0.29035 35009 ft 420 kts 229°
2026-05-08 19:12 48.30849 -0.32364 34989 ft 424 kts 229°
2026-05-08 19:13 48.26942 -0.38991 34993 ft 422 kts 228°
2026-05-08 19:13 48.23094 -0.45541 34995 ft 416 kts 229°
2026-05-08 19:14 48.19277 -0.52071 34996 ft 416 kts 229°
2026-05-08 19:14 48.15464 -0.58597 34997 ft 416 kts 228°
2026-05-08 19:15 48.11644 -0.65122 34997 ft 417 kts 228°
2026-05-08 19:15 48.07817 -0.71643 34996 ft 417 kts 228°
2026-05-08 19:16 48.03978 -0.78168 34995 ft 418 kts 228°
2026-05-08 19:16 48.00128 -0.84695 34997 ft 419 kts 227°
2026-05-08 19:17 47.96266 -0.91225 34994 ft 420 kts 227°
2026-05-08 19:17 47.92395 -0.97757 34989 ft 421 kts 227°
2026-05-08 19:18 47.88556 -1.04216 34981 ft 421 kts 227°
2026-05-08 19:18 47.84665 -1.10750 34972 ft 422 kts 227°
2026-05-08 19:19 47.80766 -1.17280 34965 ft 422 kts 227°
2026-05-08 19:19 47.76862 -1.23802 34963 ft 422 kts 227°
2026-05-08 19:20 47.72977 -1.30277 34963 ft 423 kts 226°
2026-05-08 19:20 47.69062 -1.36787 34962 ft 423 kts 226°
2026-05-08 19:21 47.65174 -1.43238 34960 ft 422 kts 226°
2026-05-08 19:21 47.61254 -1.49725 34959 ft 422 kts 226°
2026-05-08 19:22 47.57341 -1.56179 34954 ft 422 kts 226°
2026-05-08 19:22 47.53545 -1.62420 34955 ft 422 kts 226°
2026-05-08 19:23 47.49613 -1.68874 34953 ft 422 kts 225°
2026-05-08 19:23 47.45721 -1.75249 34951 ft 422 kts 225°
2026-05-08 19:24 47.41780 -1.81691 34944 ft 423 kts 225°
2026-05-08 19:24 47.37831 -1.88131 34942 ft 423 kts 225°
2026-05-08 19:25 47.33614 -1.94136 34934 ft 420 kts 212°
2026-05-08 19:25 47.28658 -1.98622 34933 ft 418 kts 208°
2026-05-08 19:26 47.23647 -2.03004 34946 ft 419 kts 208°
2026-05-08 19:26 47.18640 -2.07428 34943 ft 420 kts 208°
2026-05-08 19:27 47.13630 -2.11880 34944 ft 421 kts 208°
2026-05-08 19:27 47.08613 -2.16336 34943 ft 422 kts 208°
2026-05-08 19:28 47.03586 -2.20792 34937 ft 422 kts 208°
2026-05-08 19:28 46.98556 -2.25239 34941 ft 422 kts 208°
2026-05-08 19:29 46.93557 -2.29649 34934 ft 422 kts 208°
2026-05-08 19:29 46.88524 -2.34081 34935 ft 422 kts 207°
2026-05-08 19:30 46.83494 -2.38498 34930 ft 421 kts 207°
2026-05-08 19:30 46.78472 -2.42905 34934 ft 421 kts 207°
2026-05-08 19:31 46.73457 -2.47299 34928 ft 420 kts 207°
2026-05-08 19:31 46.68442 -2.51683 34929 ft 420 kts 207°
2026-05-08 19:32 46.64246 -2.55344 34931 ft 419 kts 207°
2026-05-08 19:32 46.59241 -2.59702 34928 ft 419 kts 207°
2026-05-08 19:33 46.54237 -2.64051 34927 ft 419 kts 207°
2026-05-08 19:33 46.49232 -2.68390 34927 ft 419 kts 206°
2026-05-08 19:34 46.44224 -2.72722 34926 ft 419 kts 206°
2026-05-08 19:34 46.39207 -2.77053 34923 ft 420 kts 206°
2026-05-08 19:35 46.34190 -2.81376 34920 ft 420 kts 206°
2026-05-08 19:35 46.29197 -2.85670 34925 ft 420 kts 206°
2026-05-08 19:36 46.24167 -2.90000 34921 ft 421 kts 206°
2026-05-08 19:36 46.19149 -2.94371 34924 ft 421 kts 207°
2026-05-08 19:37 46.14129 -2.98747 34922 ft 422 kts 207°
2026-05-08 19:37 46.09107 -3.03110 34920 ft 422 kts 206°
2026-05-08 19:38 46.04084 -3.07462 34917 ft 421 kts 206°
2026-05-08 19:38 45.99062 -3.11802 34914 ft 421 kts 206°
2026-05-08 19:39 45.94046 -3.16126 34914 ft 420 kts 206°
2026-05-08 19:39 45.89043 -3.20432 34911 ft 419 kts 206°
2026-05-08 19:40 45.84046 -3.24722 34908 ft 418 kts 206°
2026-05-08 19:40 45.79061 -3.28993 34909 ft 417 kts 206°
2026-05-08 19:41 45.74082 -3.33250 34911 ft 416 kts 206°
2026-05-08 19:41 45.69110 -3.37492 34910 ft 416 kts 206°
2026-05-08 19:42 45.64173 -3.41695 34907 ft 416 kts 206°
2026-05-08 19:42 45.59202 -3.45917 34905 ft 416 kts 206°
2026-05-08 19:43 45.54229 -3.50134 34908 ft 416 kts 206°
2026-05-08 19:43 45.49252 -3.54344 34911 ft 416 kts 206°
2026-05-08 19:44 45.44272 -3.58549 34907 ft 416 kts 206°
2026-05-08 19:44 45.39288 -3.62749 34904 ft 416 kts 206°
2026-05-08 19:45 45.34299 -3.66944 34904 ft 417 kts 206°
2026-05-08 19:45 45.29307 -3.71133 34896 ft 417 kts 207°
2026-05-08 19:46 45.24313 -3.75314 34907 ft 416 kts 207°
2026-05-08 19:46 45.16830 -3.81564 34902 ft 416 kts 207°
2026-05-08 19:47 45.11843 -3.85719 34901 ft 415 kts 207°
2026-05-08 19:47 45.06860 -3.89862 34898 ft 415 kts 207°
2026-05-08 19:48 45.01889 -3.93987 34898 ft 414 kts 207°
2026-05-08 19:48 44.96927 -3.98096 34901 ft 413 kts 207°
2026-05-08 19:49 44.91973 -4.02189 34898 ft 412 kts 208°
2026-05-08 19:49 44.87029 -4.06266 34899 ft 411 kts 208°
2026-05-08 19:50 44.82090 -4.10331 34899 ft 410 kts 208°
2026-05-08 19:50 44.77163 -4.14378 34900 ft 410 kts 208°
2026-05-08 19:51 44.72273 -4.18386 34899 ft 409 kts 208°
2026-05-08 19:51 44.67355 -4.22410 34900 ft 409 kts 208°
2026-05-08 19:52 44.62436 -4.26426 34900 ft 409 kts 208°
2026-05-08 19:52 44.57521 -4.30432 34898 ft 409 kts 208°
2026-05-08 19:53 44.52605 -4.34431 34901 ft 408 kts 208°
2026-05-08 19:53 44.47688 -4.38423 34902 ft 408 kts 208°
2026-05-08 19:54 44.42773 -4.42406 34900 ft 408 kts 208°
2026-05-08 19:54 44.37880 -4.46439 34903 ft 408 kts 210°
2026-05-08 19:55 44.33028 -4.50566 34903 ft 408 kts 210°
2026-05-08 19:55 44.28178 -4.54693 34904 ft 408 kts 210°
2026-05-08 19:56 44.23325 -4.58801 34901 ft 408 kts 210°
2026-05-08 19:56 44.18472 -4.62892 34905 ft 408 kts 210°
2026-05-08 19:57 44.13619 -4.66973 34906 ft 407 kts 210°
2026-05-08 19:57 44.08771 -4.71041 34903 ft 407 kts 210°
2026-05-08 19:58 44.03928 -4.75097 34906 ft 406 kts 211°
2026-05-08 19:58 43.99091 -4.79141 34904 ft 405 kts 210°
2026-05-08 19:59 43.94262 -4.83170 34909 ft 405 kts 211°
2026-05-08 19:59 43.89437 -4.87188 34910 ft 404 kts 211°
2026-05-08 20:00 43.84621 -4.91191 34907 ft 403 kts 211°
2026-05-08 20:00 43.79810 -4.95183 34907 ft 403 kts 211°
2026-05-08 20:01 43.75039 -4.99133 34910 ft 402 kts 211°
2026-05-08 20:01 43.70239 -5.03101 34912 ft 401 kts 211°
2026-05-08 20:02 43.65466 -5.07038 34910 ft 401 kts 211°
2026-05-08 20:02 43.60683 -5.10976 34914 ft 400 kts 211°
2026-05-08 20:03 43.55905 -5.14903 34918 ft 399 kts 211°
2026-05-08 20:03 43.51136 -5.18815 34915 ft 399 kts 211°
2026-05-08 20:04 43.46367 -5.22720 34917 ft 398 kts 211°
2026-05-08 20:04 43.41600 -5.26616 34929 ft 398 kts 211°
2026-05-08 20:05 43.36968 -5.30394 34919 ft 399 kts 211°
2026-05-08 20:05 43.32224 -5.34257 34925 ft 399 kts 211°
2026-05-08 20:06 43.27444 -5.38143 34919 ft 399 kts 211°
2026-05-08 20:06 43.22665 -5.42020 34930 ft 399 kts 211°
2026-05-08 20:07 43.17887 -5.45890 34932 ft 398 kts 210°
2026-05-08 20:07 43.13119 -5.49744 34932 ft 397 kts 210°
2026-05-08 20:08 43.08358 -5.53585 34937 ft 397 kts 210°
2026-05-08 20:08 43.03638 -5.57387 34937 ft 396 kts 210°
2026-05-08 20:09 42.98893 -5.61202 34938 ft 396 kts 210°
2026-05-08 20:09 42.94306 -5.64882 34939 ft 396 kts 210°
2026-05-08 20:10 42.89557 -5.68686 34943 ft 396 kts 210°
2026-05-08 20:10 42.84810 -5.72483 34937 ft 396 kts 210°
2026-05-08 20:11 42.80065 -5.76270 34937 ft 396 kts 210°
2026-05-08 20:11 42.75347 -5.80029 34936 ft 396 kts 210°
2026-05-08 20:12 42.70582 -5.83819 34933 ft 397 kts 210°
2026-05-08 20:12 42.65817 -5.87602 34940 ft 397 kts 210°
2026-05-08 20:13 42.61041 -5.91387 34938 ft 398 kts 210°
2026-05-08 20:13 42.56257 -5.95172 34931 ft 398 kts 210°
2026-05-08 20:14 42.51550 -5.98889 34926 ft 399 kts 210°
2026-05-08 20:14 42.46747 -6.02675 34926 ft 400 kts 210°
2026-05-08 20:15 42.41939 -6.06458 34918 ft 400 kts 210°
2026-05-08 20:15 42.37126 -6.10238 34914 ft 400 kts 210°
2026-05-08 20:16 42.32359 -6.13976 34916 ft 400 kts 211°
2026-05-08 20:16 42.27539 -6.17748 34916 ft 400 kts 211°
2026-05-08 20:17 42.22729 -6.21506 34908 ft 399 kts 211°
2026-05-08 20:17 42.17921 -6.25256 34914 ft 399 kts 211°
2026-05-08 20:18 42.13118 -6.28995 34912 ft 398 kts 211°
2026-05-08 20:18 42.09132 -6.32094 34910 ft 398 kts 211°
2026-05-08 20:19 42.04344 -6.35809 34910 ft 397 kts 211°
2026-05-08 20:19 41.99563 -6.39513 34914 ft 396 kts 211°
2026-05-08 20:20 41.94797 -6.43199 34913 ft 396 kts 211°
2026-05-08 20:20 41.90023 -6.46884 34905 ft 395 kts 211°
2026-05-08 20:21 41.85256 -6.50558 34897 ft 395 kts 211°
2026-05-08 20:21 41.80501 -6.54216 34899 ft 394 kts 211°
2026-05-08 20:22 41.75753 -6.57865 34893 ft 393 kts 211°
2026-05-08 20:22 41.71055 -6.61467 34881 ft 392 kts 211°
2026-05-08 20:23 41.66621 -6.65663 34891 ft 390 kts 218°
2026-05-08 20:23 41.62326 -6.70080 34877 ft 389 kts 218°
2026-05-08 20:24 41.58037 -6.74474 34879 ft 388 kts 218°
2026-05-08 20:24 41.53853 -6.78737 34871 ft 387 kts 217°
2026-05-08 20:25 41.49570 -6.83085 34875 ft 386 kts 217°
2026-05-08 20:25 41.45292 -6.87418 34857 ft 386 kts 217°
2026-05-08 20:26 41.41016 -6.91742 34867 ft 386 kts 217°
2026-05-08 20:26 41.36743 -6.96055 34861 ft 385 kts 217°
2026-05-08 20:27 41.32465 -7.00366 34854 ft 386 kts 217°
2026-05-08 20:27 41.28188 -7.04668 34853 ft 385 kts 217°
2026-05-08 20:28 41.23911 -7.08964 34856 ft 385 kts 217°
2026-05-08 20:28 41.19668 -7.13218 34844 ft 385 kts 217°
2026-05-08 20:29 41.15503 -7.17387 34843 ft 384 kts 217°
2026-05-08 20:29 41.11242 -7.21645 34840 ft 383 kts 217°
2026-05-08 20:30 41.06983 -7.25895 34851 ft 383 kts 217°
2026-05-08 20:30 41.02726 -7.30135 34844 ft 383 kts 217°
2026-05-08 20:31 40.98472 -7.34365 34853 ft 382 kts 217°
2026-05-08 20:31 40.94222 -7.38584 34843 ft 382 kts 217°
2026-05-08 20:32 40.89991 -7.42777 34844 ft 382 kts 217°
2026-05-08 20:32 40.85707 -7.47016 34843 ft 382 kts 217°
2026-05-08 20:33 40.81453 -7.51219 34833 ft 382 kts 217°
2026-05-08 20:33 40.77230 -7.55383 34836 ft 381 kts 217°
2026-05-08 20:34 40.72958 -7.59591 34617 ft 377 kts 217°
2026-05-08 20:34 40.68914 -7.63566 34146 ft 360 kts 217°
2026-05-08 20:35 40.66897 -7.65546 33912 ft 353 kts 217°
2026-05-08 20:35 40.64949 -7.67457 33625 ft 346 kts 217°
2026-05-08 20:35 40.63036 -7.69333 33373 ft 341 kts 217°
2026-05-08 20:35 40.61138 -7.71193 33091 ft 339 kts 217°
2026-05-08 20:36 40.59243 -7.73049 32834 ft 342 kts 217°
2026-05-08 20:36 40.57318 -7.74931 32578 ft 347 kts 216°
2026-05-08 20:36 40.55376 -7.76830 32313 ft 348 kts 216°
2026-05-08 20:36 40.53438 -7.78724 32048 ft 346 kts 216°
2026-05-08 20:37 40.51509 -7.80606 31789 ft 345 kts 216°
2026-05-08 20:37 40.49583 -7.82486 31528 ft 344 kts 216°
2026-05-08 20:37 40.47661 -7.84359 31267 ft 344 kts 216°
2026-05-08 20:37 40.45752 -7.86218 31017 ft 343 kts 216°
2026-05-08 20:38 40.43837 -7.88083 30771 ft 343 kts 216°
2026-05-08 20:38 40.41918 -7.89949 30526 ft 343 kts 216°
2026-05-08 20:38 40.39998 -7.91815 30278 ft 344 kts 216°
2026-05-08 20:38 40.38165 -7.93596 30046 ft 344 kts 216°
2026-05-08 20:39 40.36236 -7.95467 29798 ft 345 kts 215°
2026-05-08 20:39 40.34304 -7.97341 29510 ft 346 kts 215°
2026-05-08 20:39 40.32367 -7.99218 29228 ft 346 kts 215°
2026-05-08 20:39 40.30527 -8.01239 28936 ft 345 kts 225°
2026-05-08 20:40 40.28968 -8.03500 28682 ft 342 kts 226°
2026-05-08 20:40 40.27404 -8.05829 28404 ft 340 kts 226°
2026-05-08 20:40 40.25845 -8.08159 28131 ft 340 kts 226°
2026-05-08 20:40 40.24313 -8.10442 27871 ft 339 kts 226°
2026-05-08 20:41 40.22754 -8.12756 27606 ft 339 kts 226°
2026-05-08 20:41 40.21194 -8.15063 27340 ft 338 kts 226°
2026-05-08 20:41 40.19638 -8.17359 27090 ft 337 kts 226°
2026-05-08 20:41 40.18077 -8.19656 26831 ft 337 kts 226°
2026-05-08 20:42 40.16520 -8.21944 26574 ft 336 kts 226°
2026-05-08 20:42 40.14966 -8.24225 26307 ft 336 kts 226°
2026-05-08 20:42 40.13416 -8.26497 26066 ft 334 kts 226°
2026-05-08 20:42 40.11872 -8.28759 25815 ft 333 kts 226°
2026-05-08 20:43 40.10332 -8.31014 25564 ft 332 kts 225°
2026-05-08 20:43 40.08869 -8.33153 25324 ft 331 kts 225°
2026-05-08 20:43 40.07332 -8.35399 25079 ft 329 kts 225°
2026-05-08 20:43 40.05809 -8.37623 24836 ft 328 kts 225°
2026-05-08 20:44 40.04315 -8.39803 24594 ft 327 kts 225°
2026-05-08 20:44 40.02785 -8.41977 24359 ft 323 kts 220°
2026-05-08 20:44 40.01019 -8.43764 23898 ft 323 kts 211°
2026-05-08 20:44 39.99048 -8.45305 22748 ft 342 kts 209°
2026-05-08 20:45 39.96911 -8.46909 21548 ft 361 kts 208°
2026-05-08 20:45 39.95471 -8.47983 21256 ft 358 kts 208°
2026-05-08 20:45 39.92709 -8.50051 20856 ft 348 kts 208°
2026-05-08 20:45 39.90620 -8.51623 20405 ft 346 kts 208°
2026-05-08 20:46 39.88546 -8.53190 19909 ft 345 kts 208°
2026-05-08 20:46 39.86476 -8.54756 19453 ft 343 kts 208°
2026-05-08 20:46 39.84423 -8.56313 19011 ft 340 kts 208°
2026-05-08 20:46 39.82413 -8.57837 18571 ft 339 kts 208°
2026-05-08 20:47 39.80381 -8.59378 18125 ft 337 kts 209°
2026-05-08 20:47 39.78359 -8.60910 17651 ft 336 kts 208°
2026-05-08 20:47 39.76372 -8.62416 17215 ft 332 kts 208°
2026-05-08 20:47 39.74383 -8.63922 16759 ft 330 kts 208°
2026-05-08 20:48 39.72413 -8.65414 16470 ft 323 kts 208°
2026-05-08 20:48 39.70505 -8.66858 16214 ft 314 kts 208°
2026-05-08 20:48 39.68633 -8.68274 15897 ft 309 kts 208°
2026-05-08 20:48 39.66780 -8.69673 15537 ft 307 kts 208°
2026-05-08 20:49 39.64945 -8.71058 15205 ft 304 kts 208°
2026-05-08 20:49 39.63131 -8.72426 14853 ft 302 kts 207°
2026-05-08 20:49 39.61321 -8.73790 14503 ft 300 kts 207°
2026-05-08 20:49 39.59581 -8.75101 14184 ft 298 kts 207°
2026-05-08 20:50 39.57791 -8.76448 13830 ft 297 kts 207°
2026-05-08 20:50 39.56011 -8.77788 13469 ft 295 kts 207°
2026-05-08 20:50 39.54254 -8.79110 13090 ft 290 kts 207°
2026-05-08 20:50 39.52513 -8.80418 12730 ft 288 kts 207°
2026-05-08 20:51 39.50785 -8.81716 12395 ft 286 kts 206°
2026-05-08 20:51 39.49070 -8.83004 12059 ft 284 kts 206°
2026-05-08 20:51 39.47365 -8.84283 11725 ft 282 kts 206°
2026-05-08 20:51 39.45681 -8.85546 11400 ft 281 kts 206°
2026-05-08 20:52 39.43997 -8.86808 11078 ft 279 kts 206°
2026-05-08 20:52 39.42319 -8.88065 10735 ft 278 kts 206°
2026-05-08 20:52 39.40649 -8.89315 10358 ft 278 kts 206°
2026-05-08 20:52 39.38971 -8.90570 9996 ft 278 kts 206°
2026-05-08 20:53 39.37326 -8.91802 9835 ft 267 kts 205°
2026-05-08 20:53 39.35762 -8.92976 9737 ft 252 kts 205°
2026-05-08 20:53 39.34245 -8.94109 9322 ft 249 kts 205°
2026-05-08 20:53 39.32765 -8.95214 9018 ft 244 kts 205°
2026-05-08 20:54 39.31301 -8.96304 8741 ft 242 kts 205°
2026-05-08 20:54 39.29844 -8.97390 8457 ft 241 kts 205°
2026-05-08 20:54 39.28444 -8.98137 8222 ft 235 kts 187°
2026-05-08 20:54 39.26817 -8.98411 7998 ft 235 kts 184°
2026-05-08 20:55 39.25210 -8.98667 7750 ft 234 kts 185°
2026-05-08 20:55 39.23590 -8.98933 7436 ft 235 kts 185°
2026-05-08 20:55 39.21973 -8.99205 7165 ft 234 kts 185°
2026-05-08 20:55 39.20364 -8.99481 6895 ft 233 kts 185°
2026-05-08 20:56 39.18757 -8.99759 6612 ft 233 kts 185°
2026-05-08 20:56 39.17178 -9.00036 6361 ft 231 kts 185°
2026-05-08 20:56 39.15568 -9.00318 6075 ft 230 kts 186°
2026-05-08 20:56 39.14010 -9.00593 5791 ft 229 kts 186°
2026-05-08 20:57 39.12436 -9.00871 5474 ft 228 kts 185°
2026-05-08 20:57 39.10861 -9.01149 5189 ft 228 kts 186°
2026-05-08 20:57 39.09298 -9.01427 4914 ft 227 kts 186°
2026-05-08 20:57 39.07877 -9.01678 4658 ft 226 kts 186°
2026-05-08 20:58 39.06325 -9.01953 4403 ft 225 kts 186°
2026-05-08 20:58 39.04797 -9.02224 4284 ft 217 kts 186°
2026-05-08 20:58 39.03340 -9.02483 4218 ft 207 kts 186°
2026-05-08 20:58 39.01936 -9.02733 4100 ft 201 kts 186°
2026-05-08 20:59 39.00580 -9.02972 4032 ft 193 kts 186°
2026-05-08 20:59 38.99266 -9.03204 4011 ft 188 kts 186°
2026-05-08 20:59 38.97973 -9.03433 4007 ft 188 kts 186°
2026-05-08 20:59 38.96694 -9.03763 3977 ft 188 kts 193°
2026-05-08 21:00 38.95479 -9.04308 3808 ft 183 kts 197°
2026-05-08 21:00 38.94315 -9.04911 3545 ft 178 kts 198°
2026-05-08 21:00 38.93577 -9.05306 3441 ft 170 kts 198°
2026-05-08 21:00 38.92232 -9.06027 3138 ft 164 kts 198°
2026-05-08 21:01 38.91192 -9.06584 2926 ft 158 kts 198°
2026-05-08 21:01 38.90217 -9.07110 2714 ft 146 kts 196°
2026-05-08 21:01 38.89349 -9.07576 2525 ft 133 kts 197°
2026-05-08 21:01 38.88567 -9.08005 2412 ft 117 kts 197°
2026-05-08 21:02 38.87810 -9.08402 2193 ft 117 kts 197°
2026-05-08 21:02 38.87067 -9.08798 2018 ft 114 kts 197°
2026-05-08 21:02 38.86330 -9.09187 1878 ft 115 kts 197°
2026-05-08 21:02 38.85587 -9.09583 1672 ft 116 kts 198°
2026-05-08 21:03 38.84863 -9.09990 1635 ft 114 kts 199°
2026-05-08 21:03 38.84113 -9.10378 1481 ft 119 kts 198°
2026-05-08 21:03 38.83601 -9.10652 1335 ft 122 kts 199°
2026-05-08 21:03 38.82799 -9.11091 1176 ft 127 kts 199°
2026-05-08 21:04 38.81977 -9.11536 947 ft 131 kts 196°
2026-05-08 21:04 38.81150 -9.11980 792 ft 130 kts 194°
2026-05-08 21:04 38.80287 -9.12449 614 ft 136 kts 193°
2026-05-08 21:04 38.79404 -9.12914 424 ft 137 kts 194°
2026-05-08 21:05 38.78563 -9.13359 361 ft 118 kts 202°
2026-05-08 21:05 38.77947 -9.13690 369 ft 74 kts 202°
2026-05-08 21:05 38.77615 -9.13866 366 ft 31 kts 199°
2026-05-08 21:05 38.77430 -9.13897 359 ft 19 kts 181°
2026-05-08 21:06 38.77297 -9.13899 355 ft 18 kts 172°
2026-05-08 21:06 38.77260 -9.13892 354 ft 0 kts 174°
2026-05-08 21:06 38.77256 -9.13891 354 ft 0 kts 174°
2026-05-08 21:07 38.77255 -9.13891 354 ft 0 kts 174°
2026-05-08 21:07 38.77240 -9.13889 354 ft 6 kts 175°
2026-05-08 21:07 38.77190 -9.13886 358 ft 8 kts 179°
2026-05-08 21:08 38.77133 -9.13899 361 ft 9 kts 194°
2026-05-08 21:08 38.77060 -9.13890 353 ft 12 kts 169°
2026-05-08 21:08 38.76967 -9.13866 348 ft 14 kts 168°
2026-05-08 21:08 38.76866 -9.13839 346 ft 15 kts 167°
2026-05-08 21:09 38.76768 -9.13810 348 ft 14 kts 167°
2026-05-08 21:09 38.76673 -9.13784 346 ft 14 kts 168°
2026-05-08 21:09 38.76618 -9.13706 350 ft 13 kts 101°
2026-05-08 21:09 38.76547 -9.13682 353 ft 13 kts 224°
2026-05-08 21:10 38.76498 -9.13743 347 ft 10 kts 173°
2026-05-08 21:10 38.76461 -9.13735 347 ft 1 kts 167°
2026-05-08 21:10 38.76459 -9.13734 347 ft 0 kts 167°